Neodesha, Kansas
Current Conditions -  °F | °C
As of 9:52 AM on Saturday 22 Nov 2014 (Local Time) from KPPF Reporting Station
Overcast Overcast  
Wind Chill: 57°   Ceiling: 1200
Heat Index: 57°   Visibility: 10mi
Dew Point: 53°   Wind: 12mph
Humidity: 87%   Direction: 180°S
Pressure: 30"   Gusts: NA
Location:  37.42°N, 95.68°W
Report Text: KPPF 221552Z AUTO 18010KT 10SM OVC012 14/12 A3000 RMK AO2 SLP158 T01390117
Loading
Personal Weather Stations






























Interactive Weather Map New forecast layout! Learn more

10-Day Weather Forecast

Advertisements
Track Severe Weather on mobile